Regional Weather Roundup
Issued by NWS

Home | Current Version | Previous Version | Graphics & Text | Print | Product List | Glossary On
Versions: 1 2 3 4 5 6 7 8 9 10 11 12 13 14 15 16 17 18 19 20 21 22 23 24 25 26 27 28 29 30 31 32 33 34 35 36 37 38 39 40 41 42 43 44 45 46 47 48 49 50
000
ASUS43 KMPX 240201
RWRMN
WEATHER ROUNDUP FOR MINNESOTA
NATIONAL WEATHER SERVICE TWIN CITIES/CHANHASSEN MN
800 PM CST TUE JAN 23 2018


NOTE: "FAIR" INDICATES FEW OR NO CLOUDS BELOW 12,000 FEET WITH NO
SIGNIFICANT WEATHER AND/OR OBSTRUCTIONS TO VISIBILITY. N/A MEANS
CURRENT SKY AND/OR WEATHER CONDITIONS ARE NOT AVAILABLE.

MNZ060>063-068>070-240300-
   Twin Cities Metro

CITY           SKY/WX    TMP DP  RH WIND       PRES   REMARKS
TWIN CITIES    MOCLDY    21  16  81 VRB3      30.16R
ST PAUL        FAIR      20  13  74 CALM      30.18R
CRYSTAL        FAIR      16  10  77 CALM      30.15R
BLAINE         MOCLDY    19  16  86 CALM      30.15R
LAKEVILLE      FAIR      12  10  92 CALM      30.15S
EDEN PRAIRIE   FAIR      22  14  71 CALM      30.14S
SOUTH ST PAUL  FAIR      18  13  81 CALM      30.16S
LAKE ELMO      FAIR      14  12  92 CALM      30.17R
$$
MNZ001>005-007-008-013>017-022>024-027-028-240300-
   Northwest Minnesota

CITY           SKY/WX    TMP DP  RH WIND       PRES   REMARKS
BEMIDJI        CLOUDY    13  10  87 CALM      30.11S
HALLOCK        CLOUDY    21  21 100 SW5       30.11S WCI  15
ROSEAU         CLOUDY    19  16  86 S7        30.10F WCI  10
WARROAD        FLURRIES  16  10  79 CALM      30.11S
CROOKSTON      MOCLDY    21  21 100 SW6       30.14S FOG     WCI  14
FOSSTON        CLOUDY    18  16  93 S5        30.12S FOG     WCI  11
DETROIT LAKES  CLOUDY    21  21 100 W6        30.13R WCI  14
MOORHEAD       CLOUDY    23  19  86 SW3       30.15S
PARK RAPIDS    MOCLDY    10   6  84 W6        30.10R WCI   0
MAHNOMEN       CLOUDY    19  17  89 SW3       30.12R
$$
MNZ006-009>011-018-025>026-240300-
   North Central Minnesota

CITY           SKY/WX    TMP DP  RH WIND       PRES   REMARKS
BAUDETTE       CLOUDY    15   3  59 CALM      30.10S
FLAG ISLAND    CLOUDY    16   5  62 CALM      30.09F
INTL FALLS     CLOUDY     2  -6  69 E3        30.13R
WASKISH        CLOUDY     5   1  85 CALM      30.12S
BIG FORK       FAIR       5   0  78 CALM      30.11S
LONGVILLE      FAIR       7   3  85 CALM      30.11S
GRAND RAPIDS   FAIR       8   4  83 CALM      30.13R
CRANE LAKE     CLOUDY    -2  -6  84 CALM      30.17S
ORR            CLOUDY     3  -2  78 CALM      30.10S
COOK           MOCLDY     1  -2  85 CALM      30.13R
WALKER         FAIR      11   2  66 NW5       30.11R WCI   3
$$
MNZ012-019>021-037-240300-
   Northeast Minnesota

CITY           SKY/WX    TMP DP  RH WIND       PRES   REMARKS
DULUTH         FAIR      16   4  59 N6        30.11R WCI   7
HIBBING        FAIR       3  -1  83 CALM      30.11S
EVELETH        FAIR      13   8  79 CALM      30.12S
DULUTH HARBOR  FAIR      19   9  63 CALM      30.17R
TWO HARBORS    FAIR      18   1  49 N5        30.11R WCI  11
SILVER BAY     FAIR      12  -2  52 CALM      30.12R
G MARAIS ARPRT FAIR       3 -13  47 N9        30.09R WCI -11
$$
MNZ029>031-032-039>041-046>048-054>057-064-240300-
   West Central Minnesota

CITY           SKY/WX    TMP DP  RH WIND       PRES   REMARKS
FERGUS FALLS   CLOUDY    21  19  93 W6        30.14S WCI  14
MORRIS         CLOUDY    25  19  80 NW5       30.14S WCI  19
ALEXANDRIA     CLOUDY    22  18  85 W7        30.13R WCI  13
ELBOW LAKE     CLOUDY    22  20  92 NW7       30.15S WCI  14
WADENA         CLOUDY    18  16  93 W8        30.12S WCI   7
GLENWOOD       FAIR      21  19  93 W5        30.14R WCI  15
APPLETON       CLOUDY    27  19  74 W6        30.16S WCI  20
BENSON         CLOUDY    25  19  80 N3        30.17S
MADISON        CLOUDY    28  23  80 NW5       30.16S WCI  23
WILLMAR        FAIR      21  18  86 W7        30.17S WCI  13
$$
MNZ033>034-036-042>043-049>051-058-059-240300-
   Central Minnesota

CITY           SKY/WX    TMP DP  RH WIND       PRES   REMARKS
ST CLOUD       FAIR      21  13  71 CALM      30.15R
SAUK CENTRE      N/A     20  17  88 W5        30.14R WCI  14
PAYNESVILLE    FAIR      20  17  89 W3        30.15S
AITKIN         FAIR      10   7  85 CALM      30.11S
PINE RIVER     FAIR      10   5  79 CALM      30.15R
BRAINERD       FAIR      13   5  70 SW3       30.13R
STAPLES        FAIR      12  10  92 NW3       30.13R
LONG PRAIRIE   FAIR      21  16  79 W5        30.13S WCI  15
LITTLE FALLS   FAIR      19   9  63 CALM      30.14S
LITCHFIELD     FAIR      25  19  80 W3        30.16R
BUFFALO        FAIR      20  14  75 CALM      30.16S
MAPLE LAKE     FAIR      22  17  84 MISG      30.16R
HUTCHINSON     FAIR      24  19  81 W8        30.17R WCI  15
$$
MNZ037-044-045-052-053-240300-
   East Central Minnesota

CITY           SKY/WX    TMP DP  RH WIND       PRES   REMARKS
PRINCETON      FAIR      19  14  79 CALM      30.15R
MORA           FAIR      14   9  79 CALM      30.16R
CAMBRIDGE      FAIR      16   9  73 CALM      30.15S
RUSH CITY      FAIR      13   8  79 CALM      30.15S
MOOSE LAKE     FAIR      12   9  85 CALM      30.12R
HINCKLEY       FAIR      14   9  79 CALM      30.15R
CLOQUET        FAIR      10   3  72 NW3       30.12R
MCGREGOR       FAIR      14  10  85 CALM      30.13R
$$
MNZ071>073-080-081-089-090-097-098-240300-
   Southwest Minnesota

CITY           SKY/WX    TMP DP  RH WIND       PRES   REMARKS
MONTEVIDEO     CLOUDY    25  19  80 NW6       30.16S WCI  18
GRANITE FALLS  CLOUDY    28  23  81 W7        30.18R WCI  21
CANBY          CLOUDY    27  24  87 NW8       30.17R WCI  19
MARSHALL       CLOUDY    25  22  88 NW10      30.16S WCI  15
REDWOOD FALLS  CLOUDY    22  18  85 W3        30.16F
OLIVIA         CLOUDY    23  19  86 NW3       30.16S
PIPESTONE      CLOUDY    21  21 100 NW9       30.14R WCI  11
WINDOM         CLOUDY    23  10  58 W7        30.15R WCI  15
WORTHINGTON    CLOUDY    22  20  92 W12       30.15R WCI  10
JACKSON        CLOUDY    23  19  86 W8        30.16R WCI  14
TRACY          CLOUDY    25  22  91 NW9       30.15R WCI  15
SLAYTON        CLOUDY    23  21  93 W9        30.14S WCI  13
$$
MNZ065>067-074>077-082>085-091>093-240300-
   South Central Minnesota

CITY           SKY/WX    TMP DP  RH WIND       PRES   REMARKS
MANKATO        MOCLDY    22  18  85 W6        30.16S WCI  14
NEW ULM        CLOUDY    19  16  86 W8        30.17R WCI   9
ST JAMES       CLOUDY    19  18  93 W8        30.18R WCI   9
FARIBAULT      CLOUDY    18  12  79 CALM      30.15S
OWATONNA       MOCLDY    14  10  85 CALM      30.14S
WASECA         MOCLDY    14  12  92 CALM      30.17R
ALBERT LEA     FAIR      18  14  86 CALM      30.15S
$$
MNZ078>079-086>088-094>096-240300-
   Southeast Minnesota

CITY           SKY/WX    TMP DP  RH WIND       PRES   REMARKS
ROCHESTER      FAIR      11  10  96 W8        30.14R WCI  -1
RED WING       FAIR      14   9  79 CALM      30.16S
STANTON        FAIR      13   9  85 S3        30.14S
DODGE CENTER   FAIR      10   7  85 SW5       30.13S WCI   2
WINONA         FAIR      18  16  93 CALM      30.17R
PRESTON        FAIR      13  11  88 W6        30.14S WCI   4
$$
ABBREVIATIONS USED IN REMARKS
   TC - TEMPERATURES IN CELSIUS
  WCI - WIND CHILL INDEX
   HX - HEAT INDEX
  VSB - VISIBILITY
$$



USA.gov is the U.S. government's official web portal to all federal, state and local government web resources and services.